FW7383 Weather Reports


Display with metric or nautical units.
time (UTC)temp
F
wind
direction
speed
MPH
gust
MPH
rain 1hr
in
rain 24hr
in
rain mn
in
humidity
%
barometer
mb
20260506175014 54 223 0.0 2.0 0.00 0.15 0.07 72 1010.9
20260506174541 54 215 0.0 2.0 0.00 0.15 0.07 71 1010.9
20260506174003 54 206 0.0 1.0 0.00 0.15 0.07 72 1010.7
20260506173527 54 288 0.0 3.0 0.00 0.15 0.07 72 1010.7
20260506173042 54 224 0.0 3.0 0.00 0.15 0.07 72 1010.6
20260506172600 54 251 0.0 2.0 0.00 0.15 0.07 72 1010.6
20260506172021 54 212 0.0 2.0 0.00 0.15 0.07 74 1010.6
20260506171553 54 212 0.0 2.0 0.00 0.15 0.07 73 1010.6
20260506171009 54 264 0.0 3.0 0.00 0.15 0.07 72 1010.5
20260506170536 54 218 0.0 3.0 0.00 0.15 0.07 73 1010.5
20260506170039 55 218 0.0 3.0 0.00 0.15 0.07 74 1010.5
20260506165600 55 267 0.0 3.0 0.00 0.15 0.07 74 1010.4
20260506165127 55 196 0.0 3.0 0.00 0.15 0.07 74 1010.4
20260506164614 55 219 0.0 1.0 0.00 0.15 0.07 74 1010.3
20260506164101 55 292 0.0 2.0 0.00 0.15 0.07 75 1010.3
20260506163524 55 298 0.0 2.0 0.00 0.15 0.07 75 1010.3
20260506163058 55 209 0.0 2.0 0.00 0.15 0.07 76 1010.3
20260506162555 55 342 0.0 2.0 0.00 0.15 0.07 76 1010.3
20260506162017 55 281 0.0 2.0 0.00 0.15 0.07 76 1010.2
20260506161543 55 192 0.0 3.0 0.00 0.15 0.07 76 1010.3
20260506161004 55 312 0.0 3.0 0.00 0.15 0.07 75 1010.3
20260506160508 55 326 0.0 1.0 0.00 0.15 0.07 75 1010.3
20260506160037 55 301 0.0 2.0 0.00 0.15 0.07 75 1010.3
20260506155558 54 319 0.0 4.0 0.00 0.15 0.07 74 1010.3
20260506155021 54 316 0.0 4.0 0.00 0.15 0.07 74 1010.3
20260506154551 54 293 0.0 3.0 0.00 0.15 0.07 73 1010.3
20260506154009 54 229 1.0 4.0 0.00 0.15 0.07 73 1010.3
20260506153533 54 310 1.0 4.0 0.00 0.15 0.07 73 1010.3
20260506153038 55 334 0.0 3.0 0.00 0.15 0.07 72 1010.3
20260506152606 55 323 1.0 5.0 0.00 0.15 0.07 71 1010.3
20260506152027 55 221 0.0 10.0 0.00 0.15 0.07 71 1010.3
20260506151550 55 333 1.0 10.0 0.00 0.15 0.07 71 1010.3
20260506151019 55 266 1.0 7.0 0.00 0.15 0.07 71 1010.2
20260506150522 56 306 1.0 4.0 0.00 0.15 0.07 70 1010.2
20260506150050 56 226 1.0 5.0 0.00 0.15 0.07 72 1010.2
20260506145503 56 215 0.0 6.0 0.00 0.15 0.07 70 1010.2
20260506145024 56 316 2.0 7.0 0.00 0.15 0.07 68 1010.2
20260506144546 57 212 2.0 7.0 0.00 0.15 0.07 65 1010.1
20260506144058 58 317 2.0 6.0 0.00 0.15 0.07 69 1010.1
20260506143519 57 319 2.0 6.0 0.00 0.15 0.07 71 1010.1
20260506143044 57 243 2.0 7.0 0.00 0.15 0.07 70 1010.0
20260506142501 57 317 2.0 7.0 0.00 0.15 0.07 70 1010.0
20260506142025 57 257 2.0 5.0 0.00 0.15 0.07 71 1010.1
20260506141607 57 11 0.0 4.0 0.00 0.15 0.07 70 1010.1
20260506141021 57 11 0.0 5.0 0.00 0.15 0.07 71 1010.0
20260506140548 57 288 2.0 5.0 0.00 0.15 0.07 71 1009.9
20260506140051 57 321 0.0 9.0 0.00 0.15 0.07 72 1010.0
20260506135510 57 147 2.0 9.0 0.00 0.15 0.07 71 1010.0
20260506135040 57 222 2.0 8.0 0.00 0.15 0.07 71 1010.0
20260506134605 58 262 2.0 5.0 0.00 0.15 0.07 70 1010.0
20260506134002 58 181 1.0 4.0 0.00 0.15 0.07 74 1010.0
20260506133528 58 254 0.0 3.0 0.00 0.15 0.07 73 1010.0
20260506133102 57 240 0.0 4.0 0.00 0.15 0.07 73 1010.0
20260506132512 57 326 0.0 5.0 0.00 0.15 0.07 71 1010.0
20260506132038 56 169 1.0 6.0 0.00 0.15 0.07 72 1010.0
20260506131513 56 213 2.0 6.0 0.00 0.15 0.07 72 1010.0
20260506131035 56 180 0.0 4.0 0.00 0.15 0.07 73 1010.0
20260506130602 56 236 1.0 3.0 0.00 0.15 0.07 75 1009.9
20260506130012 56 348 0.0 4.0 0.00 0.15 0.07 72 1009.9
20260506125525 56 299 0.0 2.0 0.00 0.15 0.07 74 1009.8
20260506125050 57 18 0.0 2.0 0.00 0.15 0.07 74 1009.8
20260506124555 57 336 0.0 3.0 0.00 0.15 0.07 75 1009.8
20260506124015 56 264 0.0 3.0 0.00 0.15 0.07 75 1009.7
20260506123539 56 284 0.0 2.0 0.00 0.15 0.07 76 1009.8
20260506123057 56 253 0.0 4.0 0.00 0.15 0.07 77 1009.8
20260506122517 55 161 1.0 4.0 0.00 0.15 0.07 76 1009.9
20260506122022 55 252 0.0 4.0 0.00 0.15 0.07 76 1009.9
20260506121558 55 320 1.0 5.0 0.00 0.15 0.07 75 1009.9
20260506121008 56 326 2.0 5.0 0.00 0.15 0.07 78 1009.9
20260506120515 55 233 2.0 5.0 0.00 0.15 0.07 78 1009.9
20260506120107 55 203 0.0 4.0 0.00 0.15 0.07 78 1009.8
20260506115501 54 189 0.0 4.0 0.00 0.15 0.07 79 1009.8
20260506115027 54 215 1.0 4.0 0.00 0.15 0.07 78 1009.8
20260506114553 54 233 0.0 3.0 0.00 0.15 0.07 78 1009.8
20260506114014 54 223 0.0 4.0 0.00 0.15 0.07 78 1009.8
20260506113539 54 184 1.0 4.0 0.00 0.15 0.07 78 1009.9
20260506113110 54 199 0.0 3.0 0.00 0.15 0.07 85 1009.8
20260506112529 54 197 0.0 2.0 0.00 0.15 0.07 84 1009.9
20260506112052 53 175 0.0 3.0 0.00 0.15 0.07 84 1009.9
20260506111558 53 186 0.0 4.0 0.00 0.15 0.07 84 1009.9
20260506111016 53 210 1.0 3.0 0.00 0.15 0.07 85 1009.9
20260506110543 53 307 0.0 3.0 0.00 0.15 0.07 85 1009.9
20260506110047 53 185 0.0 6.0 0.00 0.15 0.07 84 1009.9
20260506105507 53 207 1.0 6.0 0.00 0.15 0.07 85 1009.9
20260506105032 53 192 1.0 4.0 0.00 0.15 0.07 85 1010.0
20260506104540 53 169 1.0 4.0 0.00 0.15 0.07 86 1010.0
20260506104103 53 166 0.0 4.0 0.00 0.15 0.07 86 1010.1
20260506103524 52 176 1.0 4.0 0.00 0.15 0.07 86 1010.1
20260506103054 52 152 1.0 5.0 0.00 0.15 0.07 87 1010.1
20260506102556 52 161 1.0 5.0 0.00 0.15 0.07 88 1010.0
20260506102018 52 239 0.0 4.0 0.00 0.15 0.07 90 1010.0
20260506101546 51 340 1.0 4.0 0.00 0.15 0.07 90 1010.0
20260506101003 51 310 1.0 4.0 0.00 0.15 0.07 90 1010.0
20260506100507 51 330 0.0 3.0 0.00 0.15 0.07 90 1010.1
20260506100034 51 233 0.0 2.0 0.00 0.15 0.07 91 1010.0
20260506095601 50 246 0.0 3.0 0.00 0.15 0.07 91 1010.1
20260506095022 50 325 0.0 5.0 0.00 0.15 0.07 91 1010.0
20260506094548 50 241 1.0 5.0 0.00 0.15 0.07 91 1010.0
20260506094007 50 303 1.0 4.0 0.00 0.15 0.07 91 1010.0
20260506093534 50 319 0.0 6.0 0.00 0.15 0.07 92 1010.0
20260506093055 50 314 0.0 6.0 0.00 0.15 0.07 92 1009.9
20260506092517 50 360 0.0 6.0 0.00 0.15 0.07 93 1009.9
20260506092043 49 302 2.0 6.0 0.00 0.15 0.07 93 1009.8
20260506091506 49 302 1.0 5.0 0.00 0.15 0.07 93 1009.8
20260506091032 49 311 0.0 5.0 0.00 0.15 0.07 93 1009.8
20260506090557 49 243 0.0 4.0 0.00 0.15 0.07 93 1009.8
20260506090045 49 330 0.0 4.0 0.00 0.15 0.07 94 1009.8
20260506085506 49 293 0.0 3.0 0.00 0.15 0.07 94 1009.7
20260506085032 49 267 0.0 4.0 0.00 0.15 0.07 94 1009.6
20260506084503 48 300 1.0 4.0 0.00 0.15 0.07 94 1009.6
20260506084028 48 302 1.0 5.0 0.00 0.15 0.07 94 1009.6
20260506083556 48 314 1.0 5.0 0.00 0.15 0.07 94 1009.5
20260506083104 48 308 1.0 4.0 0.00 0.15 0.07 94 1009.5
20260506082523 48 311 1.0 4.0 0.00 0.15 0.07 94 1009.5
20260506082048 48 315 1.0 4.0 0.00 0.15 0.07 94 1009.5
20260506081508 48 333 1.0 4.0 0.01 0.15 0.07 94 1009.4
20260506081036 48 290 0.0 4.0 0.01 0.15 0.07 94 1009.3
20260506080604 48 314 1.0 4.0 0.01 0.15 0.07 94 1009.3
20260506073008 47 214 0.0 4.0 0.01 0.15 0.07 94 1009.1
20260506072535 47 216 0.0 5.0 0.01 0.15 0.07 93 1009.2
20260506072036 47 304 0.0 5.0 0.01 0.15 0.07 93 1009.1
20260506071603 47 286 0.0 3.0 0.00 0.14 0.06 93 1009.0
20260506071037 47 298 0.0 3.0 0.00 0.14 0.06 93 1009.0
20260506070541 47 337 0.0 2.0 0.00 0.14 0.06 93 1009.1
20260506070108 47 307 0.0 4.0 0.00 0.14 0.06 93 1009.0
20260506062046 0 0.0 0.0 0.00 0.14 0.06 1008.8
20260506061548 0 0.0 0.0 0.00 0.14 0.06 1008.8
20260506061012 0 0.0 0.0 0.00 0.14 0.06 1008.8
20260506060516 0 0.0 0.0 0.00 0.14 0.06 1008.8
20260506051006 0 0.0 0.0 0.00 0.14 0.06 1008.7
20260506050513 0 0.0 0.0 0.00 0.14 0.06 1008.7
20260506045029 0 0.0 0.0 0.00 0.14 0.06 1008.6
20260506044549 0 0.0 0.0 0.00 0.14 0.06 1008.6
20260506044100 0 0.0 0.0 0.00 0.14 0.06 1008.6
20260506043521 0 0.0 0.0 0.00 0.14 0.06 1008.6
20260506043049 0 0.0 0.0 0.00 0.14 0.06 1008.6
20260506042610 0 0.0 0.0 0.00 0.14 0.06 1008.6
20260506042104 0 0.0 0.0 0.00 0.14 0.06 1008.6
20260506041524 0 0.0 0.0 0.00 0.14 0.06 1008.6
20260506041153 0 0.0 0.0 0.00 0.14 0.06 1008.7
20260506040504 0 0.0 0.0 0.00 0.14 0.06 1008.7
20260506040029 0 0.0 0.0 0.00 0.14 0.06 1008.7
20260506035521 0 0.0 0.0 0.01 0.14 0.06 1008.7
20260506035049 0 0.0 0.0 0.01 0.14 0.06 1008.6
20260506034511 0 0.0 0.0 0.01 0.14 0.06 1008.6
20260506034038 0 0.0 0.0 0.01 0.14 0.06 1008.7
20260506033518 0 0.0 0.0 0.01 0.14 0.06 1008.7
20260506033024 0 0.0 0.0 0.01 0.14 0.06 1008.7
20260506032530 0 0.0 0.0 0.01 0.14 0.06 1008.7
20260506032058 0 0.0 0.0 0.01 0.14 0.06 1008.7
20260506031523 0 0.0 0.0 0.01 0.14 0.06 1008.7
20260506031013 46 280 0.0 2.0 0.01 0.14 0.06 88 1008.8
20260506030537 46 280 0.0 2.0 0.01 0.14 0.06 88 1008.8
20260506025551 47 300 0.0 1.0 0.00 0.13 0.06 89 1008.9
20260506025057 47 290 0.0 2.0 0.00 0.13 0.06 89 1008.9
20260506024523 47 300 0.0 4.0 0.00 0.13 0.06 88 1008.9
20260506024046 47 313 0.0 3.0 0.00 0.13 0.06 89 1008.9
20260506023508 47 282 1.0 3.0 0.00 0.13 0.06 88 1008.9
20260506023037 47 304 0.0 3.0 0.00 0.13 0.06 88 1008.9
20260506022601 47 310 0.0 4.0 0.00 0.13 0.06 88 1009.0
20260506022024 47 359 0.0 4.0 0.00 0.13 0.06 89 1008.9
20260506021548 47 304 0.0 4.0 0.00 0.13 0.06 88 1008.9
20260506021055 48 323 0.0 4.0 0.00 0.13 0.06 88 1008.9
20260506020619 48 304 0.0 3.0 0.00 0.13 0.06 89 1008.9
20260506020024 48 300 0.0 3.0 0.00 0.13 0.06 89 1008.9
20260506015550 48 290 0.0 2.0 0.00 0.13 0.06 89 1008.9
20260506015012 48 310 0.0 3.0 0.00 0.13 0.06 89 1009.0
20260506014517 48 316 0.0 3.0 0.00 0.13 0.06 89 1009.0
20260506014042 48 289 0.0 3.0 0.00 0.13 0.06 89 1009.0
20260506013501 48 303 1.0 3.0 0.00 0.13 0.06 88 1009.0
20260506013028 48 296 1.0 3.0 0.00 0.13 0.06 89 1009.0
20260506012602 48 312 0.0 3.0 0.00 0.13 0.06 89 1009.0
20260506012025 48 321 0.0 3.0 0.00 0.13 0.06 89 1009.0
20260506011556 48 276 0.0 2.0 0.00 0.13 0.06 90 1009.0
20260506011017 48 288 0.0 3.0 0.00 0.13 0.06 90 1009.0
20260506010616 48 298 0.0 3.0 0.00 0.13 0.06 91 1009.0
20260506010058 48 300 0.0 1.0 0.00 0.13 0.06 91 1009.0
20260506005509 48 274 0.0 1.0 0.00 0.13 0.06 91 1009.0
20260506005036 48 293 0.0 1.0 0.00 0.13 0.06 91 1009.0
20260506004628 48 300 0.0 1.0 0.00 0.13 0.06 91 1009.1
20260506004021 48 300 0.0 1.0 0.00 0.13 0.06 91 1009.1
20260506003526 48 302 0.0 2.0 0.01 0.13 0.06 91 1009.2
20260506003053 48 285 0.0 3.0 0.01 0.13 0.06 91 1009.2
20260506002514 48 305 0.0 3.0 0.01 0.13 0.06 92 1009.3
20260506002021 48 310 0.0 2.0 0.01 0.13 0.06 92 1009.3
20260506001547 48 280 0.0 2.0 0.02 0.13 0.06 92 1009.3
20260506001053 48 279 0.0 2.0 0.02 0.13 0.06 91 1009.3
20260506000558 48 260 0.0 3.0 0.02 0.13 0.06 91 1009.4
20260506000011 48 309 0.0 3.0 0.02 0.13 0.06 91 1009.4
20260505235536 48 311 0.0 2.0 0.02 0.14 0.06 92 1009.4
20260505235103 48 306 0.0 2.0 0.02 0.14 0.06 91 1009.5
20260505234559 48 311 0.0 4.0 0.03 0.14 0.06 91 1009.6
20260505234029 48 283 1.0 4.0 0.03 0.14 0.06 91 1009.6
20260505233554 48 25 1.0 4.0 0.02 0.13 0.05 92 1009.6
20260505233018 48 332 1.0 4.0 0.03 0.13 0.05 92 1009.5
20260505232542 48 333 0.0 3.0 0.03 0.13 0.05 92 1009.6
20260505232005 48 309 0.0 4.0 0.04 0.13 0.05 92 1009.6
20260505231534 48 324 0.0 3.0 0.03 0.13 0.04 92 1009.6
20260505231057 48 297 0.0 3.0 0.03 0.13 0.04 92 1009.6
20260505230622 48 314 0.0 2.0 0.04 0.13 0.04 92 1009.6
20260505230015 49 293 1.0 3.0 0.04 0.13 0.04 92 1009.7
20260505225519 49 310 0.0 3.0 0.03 0.17 0.03 92 1009.7
20260505225043 49 283 0.0 3.0 0.03 0.17 0.03 92 1009.8
20260505224507 49 312 0.0 3.0 0.03 0.16 0.02 92 1009.8
20260505224032 49 316 1.0 3.0 0.03 0.16 0.02 92 1009.8
20260505223558 49 316 1.0 4.0 0.03 0.16 0.02 92 1009.8
20260505223105 49 319 0.0 4.0 0.03 0.15 0.02 92 1009.8
20260505222523 49 283 0.0 3.0 0.03 0.15 0.02 92 1009.8
20260505222048 49 313 0.0 4.0 0.02 0.14 0.01 92 1009.8
20260505221509 49 319 1.0 5.0 0.03 0.14 0.01 92 1009.8
20260505221034 50 329 1.0 5.0 0.03 0.14 0.01 92 1009.7
20260505220605 50 321 1.0 5.0 0.02 0.13 0.00 93 1009.7
20260505220008 50 309 0.0 3.0 0.03 0.13 0.00 93 1009.7
20260505215527 50 310 0.0 4.0 0.03 0.15 0.13 94 1009.7
20260505215054 50 304 0.0 4.0 0.03 0.15 0.13 94 1009.8
20260505214520 50 274 0.0 0.0 0.02 0.14 0.13 94 1009.8
20260505214041 50 274 0.0 0.0 0.03 0.14 0.13 94 1009.9
20260505213616 50 274 0.0 0.0 0.03 0.14 0.13 94 1009.9
20260505213048 50 274 0.0 1.0 0.02 0.13 0.12 94 1009.9
20260505212508 50 270 0.0 1.0 0.02 0.13 0.12 94 1009.8
20260505212032 50 270 0.0 2.0 0.03 0.13 0.12 94 1009.8
20260505211614 50 291 0.0 2.0 0.02 0.13 0.11 94 1009.9
20260505211022 50 18 0.0 1.0 0.02 0.13 0.11 94 1009.9
20260505210510 50 288 0.0 0.0 0.03 0.13 0.11 94 1009.9
20260505210036 50 288 0.0 0.0 0.02 0.12 0.10 94 1009.9
20260505205602 50 345 0.0 0.0 0.02 0.13 0.10 93 1009.9
20260505205024 50 345 0.0 0.0 0.02 0.13 0.10 93 1009.9
20260505204551 50 345 0.0 0.0 0.03 0.13 0.10 93 1009.9
20260505204011 50 345 0.0 0.0 0.02 0.13 0.09 93 1009.9
20260505203538 50 345 0.0 0.0 0.02 0.13 0.09 93 1009.9
20260505203107 50 345 0.0 0.0 0.02 0.13 0.09 93 1009.9
20260505202525 50 345 0.0 0.0 0.03 0.13 0.09 93 1010.0
20260505202050 50 345 0.0 0.0 0.02 0.12 0.09 93 1009.9
20260505201607 50 345 0.0 0.0 0.02 0.12 0.09 93 1009.9
20260505201024 50 11 0.0 0.0 0.03 0.12 0.09 93 1009.9
20260505200552 50 11 0.0 0.0 0.02 0.11 0.08 93 1009.9
20260505200106 50 11 0.0 0.0 0.02 0.11 0.08 93 1009.9
20260505195520 50 11 0.0 0.0 0.02 0.12 0.08 93 1009.8
20260505195047 50 11 0.0 0.0 0.02 0.12 0.08 92 1009.8
20260505194506 50 11 0.0 0.0 0.02 0.11 0.07 92 1009.8
20260505194032 50 11 0.0 0.0 0.02 0.11 0.07 92 1009.8
20260505193555 50 11 0.0 0.0 0.02 0.11 0.07 92 1009.8
20260505193014 51 352 0.0 0.0 0.01 0.10 0.06 91 1009.7
20260505192522 51 352 0.0 0.0 0.01 0.10 0.06 91 1009.7
20260505192026 51 4 0.0 0.0 0.01 0.10 0.06 91 1009.7
20260505191554 51 318 0.0 0.0 0.01 0.10 0.06 90 1009.6
20260505191017 51 319 0.0 0.0 0.00 0.09 0.06 90 1009.6
20260505190517 51 28 0.0 0.0 0.00 0.09 0.06 90 1009.6
20260505190048 51 28 0.0 0.0 0.00 0.09 0.06 90 1009.5
20260505185555 52 28 0.0 0.0 0.00 0.09 0.06 90 1009.5
20260505185059 52 28 0.0 0.0 0.00 0.09 0.06 90 1009.5
20260505184609 52 28 0.0 1.0 0.00 0.09 0.06 90 1009.5
20260505184027 52 329 0.0 0.0 0.00 0.09 0.06 90 1009.4
20260505183555 52 335 0.0 1.0 0.00 0.09 0.06 90 1009.4
20260505183034 52 4 0.0 1.0 0.00 0.09 0.06 90 1009.4
20260505182540 52 6 0.0 1.0 0.00 0.09 0.06 90 1009.4
20260505182002 52 313 0.0 2.0 0.00 0.09 0.06 91 1009.4
20260505181528 52 300 0.0 4.0 0.00 0.09 0.06 91 1009.4
20260505181044 52 301 0.0 4.0 0.00 0.09 0.06 91 1009.4
20260505180612 52 321 0.0 3.0 0.00 0.09 0.06 91 1009.4
20260505180014 52 311 0.0 4.0 0.00 0.09 0.06 91 1009.4
20260505175518 52 268 1.0 5.0 0.00 0.09 0.06 91 1009.5
20260505175052 52 325 1.0 7.0 0.00 0.09 0.06 91 1009.5